This is the latest recevied weather packets stored in our database for station/object KD7CIH. If no packets are shown the sender has not sent any weather packets the latest 10 day(s).
| Time | Temp. | Humidity | Pressure | Rain* | Wind** | Luminosity | Snow |
|---|---|---|---|---|---|---|---|
| 1777215152 | 1.11° C | 91% | 998.3 hPa | 2.03 mm | - | - | - |
| 1777214855 | 1.11° C | 91% | 998.4 hPa | 2.03 mm | - | - | - |
| 1777214552 | 1.11° C | 91% | 998.4 hPa | 2.03 mm | - | - | - |
| 1777214250 | 1.11° C | 90% | 998.5 hPa | 2.03 mm | - | - | - |
| 1777213948 | 1.11° C | 90% | 998.5 hPa | 2.03 mm | - | - | - |
| 1777213650 | 1.11° C | 90% | 998.7 hPa | 2.03 mm | - | - | - |
| 1777213346 | 1.11° C | 90% | 998.7 hPa | 2.29 mm | - | - | - |
| 1777213047 | 1.11° C | 90% | 998.8 hPa | 2.03 mm | - | - | - |
| 1777212742 | 1.67° C | 90% | 998.8 hPa | 2.03 mm | - | - | - |
| 1777212436 | 1.67° C | 89% | 998.9 hPa | 2.03 mm | - | - | - |
| 1777212129 | 1.67° C | 89% | 998.8 hPa | 1.78 mm | - | - | - |
| 1777211828 | 1.67° C | 89% | 998.9 hPa | 1.52 mm | - | - | - |
| 1777211528 | 1.67° C | 89% | 998.9 hPa | 1.27 mm | - | - | - |
| 1777211230 | 1.67° C | 88% | 998.9 hPa | 1.27 mm | - | - | - |
| 1777210927 | 1.67° C | 88% | 998.9 hPa | 1.02 mm | - | - | - |
| 1777210629 | 2.22° C | 87% | 998.9 hPa | 0.76 mm | - | - | - |
| 1777210326 | 2.22° C | 87% | 998.9 hPa | 0.76 mm | - | - | - |
| 1777210026 | 2.22° C | 86% | 998.8 hPa | 0.51 mm | - | - | - |
| 1777209854 | 2.78° C | 86% | 998.9 hPa | 0.25 mm | - | - | - |
| 1777209426 | 2.78° C | 85% | 998.9 hPa | 0 mm | - | - | - |
| 1777209128 | 3.33° C | 84% | 998.8 hPa | 0 mm | - | - | - |
| 1777208826 | 3.33° C | 82% | 998.8 hPa | 0 mm | - | - | - |
| 1777208654 | 3.89° C | 81% | 998.7 hPa | 0 mm | - | - | - |
| 1777208355 | 3.89° C | 78% | 998.5 hPa | 0 mm | - | - | - |
| 1777207926 | 3.89° C | 77% | 998.5 hPa | 0 mm | - | - | - |
* Rain latest hour (hover to see other rain measurements)
** Current wind speed in m/s (hover to see current wind gust speed)